Regional Weather Roundup
Issued by NWS Kansas City/Pleasant Hill, MO

Home | Current Version | Previous Version | Graphics & Text | Print | Product List | Glossary Off
Versions: 1 2 3 4 5 6 7 8 9 10 11 12 13 14 15 16 17 18 19 20 21 22 23 24 25 26 27 28 29 30 31 32 33 34 35 36 37 38 39 40 41 42 43 44 45 46 47 48 49 50

000
ASUS43 KEAX 221410
RWREAX

WEATHER ROUNDUP FOR EASTERN KANSAS AND NORTHWEST MISSOURI
NATIONAL WEATHER SERVICE KANSAS CITY/PLEASANT HILL MO
800 AM CST SAT NOV 22 2014

KSZ040-057-103>105-MOZ028-029-037-043-221500-
...KANSAS CITY METROPOLITAN AREA...

CITY           SKY/WX    TMP DP  RH WIND       PRES   REMARKS
K.C. INTL      DRZL/FOG  53  53 100 SW13      29.95S VSB 1/4
K.C. DOWNTOWN  CLOUDY    55  53  93 SW8       29.95F FOG
LEES SUMMIT    NOT AVBL
OLATHE - IXD   FOG       53  53 100 S15       29.97S VSB 3/4
OLATHE - OJC   FOG       53  53 100 S12G20    29.96S VSB 3/4
LAWRENCE       FOG       48  47  96 CALM      29.96S VSB<1/4

$$

MOZ001>008-011>017-020>025-030>033-038>040-044>046-053-054-221500-
...NORTHERN AND CENTRAL MISSOURI...

CITY           SKY/WX    TMP DP  RH WIND       PRES   REMARKS
ST. JOSEPH     FOG       43  43 100 S5        29.94F VSB 1/4
MOSBY          FOG       52  52 100 S5        29.96F VSB 1
WARRENSBURG    CLOUDY    52  46  82 S12       30.00R
WHITEMAN AFB   MOCLDY    52  48  87 S15       30.00R
CLINTON        CLOUDY    54  48  82 S9        30.02S
SEDALIA        CLOUDY    54  47  77 S14       30.02S
WARSAW         NOT AVBL
MARSHALL       MOCLDY    55  50  82 S12G17    30.00S
CHILLICOTHE      N/A     51  50  96 S5        29.97S
KIRKSVILLE     CLOUDY    51  47  86 S12       29.96F

$$

MOZ041-047>049-056>058-063>065-088>090-097-221500-
...EASTERN AND SOUTHERN MISSOURI...

CITY           SKY/WX    TMP DP  RH WIND       PRES   REMARKS
ST. LOUIS INTL PTSUNNY   50  42  74 S8        30.10S
SPIRIT OF STL  CLOUDY    51  43  74 S6        30.09S
COLUMBIA       PTCLDY    51  45  79 S14       30.04S
JEFFERSON CITY PTCLDY    52  44  74 VRB3      30.06S
MEXICO         CLOUDY    52  48  87 S10       30.03
ROLLA          CLOUDY    50  44  80 S14       30.07S
OSAGE BEACH    CLOUDY    48  43  81 S8        30.07R
SPRINGFIELD    CLOUDY    51  45  79 S13       30.07S
BRANSON        CLOUDY    54  48  82 S6        30.11R
NEVADA         CLOUDY    55  50  82 S15G21    30.04R
JOPLIN         CLOUDY    57  50  77 S17G24    30.04S
WEST PLAINS    CLOUDY    48  44  86 S8        30.15S

$$

IAZ060-094-KSZ022-034>040-054-083-096-NEZ052-066-093-221500-
...KANSAS...SOUTHEAST NEBRASKA AND IOWA...

CITY           SKY/WX    TMP DP  RH WIND       PRES   REMARKS
TOPEKA         FOG       45  44  97 CALM      29.95S VSB 1/4
MANHATTAN      FOG       42  42 100 SW6       29.93F VSB 3/4
EMPORIA        FOG       48  48 100 S6        29.95S VSB<1/4
CHANUTE        CLOUDY    54  53  97 S14       30.01R FOG
WICHITA        DRZL/FOG  45  44  97 SW5       29.96S VSB 1/8
OMAHA          CLOUDY    39  38  96 S6        29.86F FOG     WCI  35
LINCOLN        CLOUDY    38  36  92 SW9       29.88S FOG     WCI  31
FALLS CITY     CLOUDY    42  41  96 S8        29.91F FOG
LAMONI         CLOUDY    43  42  97 SW14      29.93S
DES MOINES     CLOUDY    41  39  93 SW9       29.90S FOG

$$




USA.gov is the U.S. government's official web portal to all federal, state and local government web resources and services.